Showing default

FALCONSAT-6, 43815

Orbit data source: Space-Track

FALCONSAT-6, 43815 is a payload satellite owned by USAF SMC (US) in SSO that was launched on Mon, 03 Dec 2018 UTC via an FALCON 9 launch vehicle from the Air Force Western Test Range (AFWTR). Payload-class satellites include a variety of spacecraft equipped with specific instruments for various scientific and technological missions. These include communications satellites like Starlink; space stations such as the ISS; scientific satellites like the Hubble; Earth observation satellites from companies like Planet Labs, Umbra, and HawkEye 360; GPS; miniature CubeSats for education and research; and military/defense satellites.

Loading next visibility...
Identifier
43815, 2018-099BK
Orbit
SSO
Country
Flag of USUS
Related business
Manufacturer
USAF Academy
Mission
Operational Defense Technology
Bus & Motor
FALCONSAT, Unknown motor
Mass
181 kg wet, 181 kg dry
Launch date (UTC)
2018-12-03 (7 years ago)
Launch vehicle
FALCON 9
Launch site
Air Force Western Test Range (AFWTR)
Object type
Payload
Rocket body
Debris
Shape & HBR
Box + 1 Ant, 2.0 m
Radar Cross Section
0.551 m², Medium (>0.1 m² and < 1m²)

Expand to show TLE details & history
Last TLE update: 14 hours ago

TLE from 14 hours ago
0 FALCONSAT-6
1 43815U 18099BK  26034.48544259  .00004863  00000-0  18991-3 0  9996
2 43815  97.3937 111.9431 0017362  58.6075 312.3375 15.26228874393331
Epoch: 2026-02-03T11:39Z
TLE epoch observation values (Epoch: 2026-02-03T11:39:02.239Z)
Latitude
10.65317°
Longitude
162.1271°
Altitude
481.421 km
Speed
7.63 km/s
True Right ascension
07h 22m 12s
True Declination
10° 35' 18"
Sunlit
Object was in full shadow at epoch
Visualization orbit readout
Latitude
Unknown
Longitude
Unknown
Altitude
Unknown
Speed
Unknown
Apparent Right ascension
Unknown
Apparent Declination
Unknown
Sunlit
N/A
Visualization observer readout
Local Sidereal Time
03:32:41
Azimuth
Unknown
Elevation
Unknown
Doppler factor
Unknown
Orbital elements
Apogee altitude
495.969 km
Perigee altitude
472.141 km
Semi-major axis
6,862.192 km
Eccentricity
0.00174
Inclination
97.3937°
RAAN
111.9431°
Arg. of periapsis
58.6075°
True anomaly
312.19022°
Mean anomaly
312.3375°
Eccentric anomaly
312.26388°
Mean motion
3.81811 °/min
Orbital period
94.29 mins
BSTAR
0.00018991
Loading maneuver chart data...
Computing Atmospheric mass density...
Loading historical data...
Loading historical data...
Loading historical data...
Loading historical data...
Loading historical data...
Loading historical data...
Loading historical data...

Documentation

Showing up to 5 results
|